Weather History for Marion, IN

Change the Weather History Date:

Friday, February 1, 2013

  Actual Average (KMIE) Record (KMIE)
Temperature  
Mean Temperature 8 °F 27 °F  
Max Temperature 62 °F 35 °F 63 °F (1989)
Min Temperature 3 °F 19 °F -3 °F (1971)
Degree Days  
Heating Degree Days 56 38  
Month to date heating degree days 38  
Since 1 July heating degree days 3431  
Cooling Degree Days 0 0  
Month to date cooling degree days 0  
Year to date cooling degree days 0  
Moisture  
Dew Point 1 °F    
Average Humidity 70    
Maximum Humidity 74    
Minimum Humidity 64    
Precipitation  
Precipitation 0.00 in 0.08 in 0.93 in (2014)
Month to date precipitation 0.08  
Year to date precipitation 2.31  
Sea Level Pressure  
Sea Level Pressure 30.28 in    
Wind  
Wind Speed 18 mph (West)    
Max Wind Speed 25 mph    
Max Gust Speed 33 mph    
Visibility 6 miles    
Events Snow    
T = Trace of Precipitation, MM = Missing Value Source: NWS Daily Summary

Daily Weather History Graph

Daily Weather History Graph

Search for Another Location

Airport:

Trip Planner

Search our weather history database for the weather conditions in past years. The results will help you decide how hot, cold, wet, or windy it might be!

Date:

Astronomy

Feb. 01, 2013 Rise Set
Actual Time 7:51 AM EST 6:01 PM EST
Civil Twilight 7:23 AM EST 6:30 PM EST
Nautical Twilight 6:50 AM EST 7:02 PM EST
Astronomical Twilight 6:18 AM EST 7:34 PM EST
Moon No Moon Rise 10:23 AM EST (2/1)
Length of Visible Light 11h 06m
Length of Day
10h 09m
Waning Gibbous, 70% of the Moon is Illuminated
Feb 1
Waning Gibbous
Feb 3
Last Quarter
Feb 10
New
Feb 17
First Quarter
Feb 25
Full

Hourly Weather History & Observations

Time (EST) Temp. Windchill Dew Point Humidity Pressure Visibility Wind Dir Wind Speed Gust Speed Precip Events Conditions
12:15 AM 9.3 °F -10.0 °F 1.9 °F 72% 30.08 in 10.0 mi WNW 20.7 mph 25.3 mph N/A   Mostly Cloudy
12:35 AM 8.6 °F -10.0 °F 0.5 °F 70% 30.08 in 10.0 mi WNW 18.4 mph 26.5 mph N/A   Mostly Cloudy
12:55 AM 8.2 °F -12.8 °F 0.9 °F 72% 30.09 in 5.0 mi WNW 24.2 mph 28.8 mph N/A   Haze
1:15 AM 7.9 °F -12.4 °F 1.2 °F 74% 30.10 in 7.0 mi WNW 21.9 mph 31.1 mph N/A   Mostly Cloudy
1:35 AM 7.5 °F -13.7 °F -0.0 °F 71% 30.11 in 7.0 mi WNW 24.2 mph 27.6 mph N/A   Scattered Clouds
1:55 AM 7.2 °F -14.6 °F -0.0 °F 72% 30.12 in 5.0 mi West 25.3 mph 29.9 mph N/A   Haze
2:15 AM 7.0 °F -14.5 °F -0.2 °F 72% 30.13 in 7.0 mi West 24.2 mph 29.9 mph N/A   Mostly Cloudy
2:35 AM 6.6 °F -14.5 °F -0.4 °F 73% 30.15 in 10.0 mi West 23.0 mph 31.1 mph N/A   Mostly Cloudy
2:55 AM 6.3 °F -15.4 °F -1.3 °F 71% 30.16 in 4.0 mi West 24.2 mph 29.9 mph N/A Snow Light Snow
3:15 AM 5.9 °F -15.0 °F -1.5 °F 72% 30.17 in 4.0 mi West 21.9 mph 29.9 mph N/A Snow Light Snow
3:35 AM 5.9 °F -15.5 °F -1.5 °F 72% 30.18 in 2.5 mi West 23.0 mph 31.1 mph N/A Snow Light Snow
3:55 AM 5.7 °F -15.3 °F -1.3 °F 73% 30.19 in 3.0 mi West 21.9 mph 29.9 mph N/A Snow Light Snow
4:15 AM 5.5 °F -16.4 °F -1.5 °F 73% 30.20 in 10.0 mi West 24.2 mph 33.4 mph N/A   Mostly Cloudy
4:35 AM 5.4 °F -17.0 °F -2.0 °F 72% 30.21 in 4.0 mi West 25.3 mph 31.1 mph N/A   Haze
4:55 AM 5.0 °F -15.2 °F -2.2 °F 72% 30.21 in 7.0 mi West 19.6 mph - N/A   Scattered Clouds
5:15 AM 4.8 °F -16.9 °F -2.2 °F 73% 30.22 in 3.0 mi WNW 23.0 mph 28.8 mph N/A Snow Light Snow
5:35 AM 4.6 °F -15.7 °F -2.6 °F 72% 30.23 in 5.0 mi WNW 19.6 mph 25.3 mph N/A   Haze
5:55 AM 4.6 °F -15.2 °F -2.2 °F 73% 30.24 in 4.0 mi WNW 18.4 mph 25.3 mph N/A Snow Light Snow
6:15 AM 4.5 °F -15.9 °F -2.4 °F 73% 30.25 in 4.0 mi WNW 19.6 mph 24.2 mph N/A Snow Light Snow
6:35 AM 4.1 °F -15.3 °F -3.1 °F 72% 30.26 in 2.0 mi WNW 17.3 mph 24.2 mph N/A Snow Light Snow
6:55 AM 4.1 °F -16.9 °F -3.1 °F 72% 30.27 in 4.0 mi West 20.7 mph - N/A Snow Light Snow
7:15 AM 4.1 °F -15.9 °F -2.9 °F 73% 30.28 in 10.0 mi West 18.4 mph - N/A   Mostly Cloudy
7:35 AM 3.9 °F -16.1 °F -3.6 °F 71% 30.29 in 5.0 mi WNW 18.4 mph - N/A Snow Light Snow
7:55 AM 3.9 °F -15.0 °F -3.6 °F 71% 30.30 in 7.0 mi WNW 16.1 mph - N/A   Mostly Cloudy
8:15 AM 3.9 °F -15.0 °F -3.1 °F 73% 30.30 in 2.5 mi West 16.1 mph 19.6 mph N/A Snow Light Snow
8:35 AM 4.1 °F -15.3 °F -3.3 °F 71% 30.31 in 3.0 mi West 17.3 mph 21.9 mph N/A Snow Light Snow
9:15 AM 4.6 °F -15.2 °F -3.1 °F 70% 30.33 in 5.0 mi West 18.4 mph - N/A   Haze
9:35 AM 5.0 °F -13.0 °F -2.9 °F 70% 30.33 in 4.0 mi West 15.0 mph - N/A   Haze
10:15 AM 5.7 °F -12.0 °F -2.0 °F 70% 30.34 in 4.0 mi West 15.0 mph - N/A   Haze
10:35 AM 6.4 °F -10.5 °F -1.5 °F 70% 30.35 in 2.5 mi West 13.8 mph - N/A   Haze
10:55 AM 6.8 °F -9.3 °F -1.5 °F 69% 30.36 in 4.0 mi West 12.7 mph - N/A   Haze
11:15 AM 7.7 °F -10.7 °F -0.4 °F 70% 30.36 in 7.0 mi West 17.3 mph - N/A   Mostly Cloudy
11:35 AM 8.1 °F -8.4 °F -0.4 °F 68% 30.37 in 3.0 mi West 13.8 mph 21.9 mph N/A Snow Light Snow
11:55 AM 8.6 °F -6.3 °F -0.0 °F 68% 30.37 in 7.0 mi West 11.5 mph 20.7 mph N/A   Overcast
12:15 PM 8.6 °F -7.0 °F -0.2 °F 67% 30.37 in 7.0 mi West 12.7 mph 19.6 mph N/A   Overcast
12:35 PM 9.9 °F -6.1 °F 1.2 °F 68% 30.36 in 10.0 mi West 13.8 mph - N/A   Overcast
12:55 PM 9.9 °F -6.7 °F 1.0 °F 68% 30.36 in 10.0 mi West 15.0 mph - N/A   Mostly Cloudy
1:15 PM 10.0 °F -6.5 °F 1.2 °F 68% 30.36 in 5.0 mi West 15.0 mph 21.9 mph N/A   Haze
1:35 PM 10.9 °F -5.4 °F 2.1 °F 68% 30.35 in 7.0 mi West 15.0 mph 20.7 mph N/A   Overcast
1:55 PM 11.3 °F -3.6 °F 2.7 °F 68% 30.34 in 3.0 mi West 12.7 mph - N/A Snow Light Snow
2:15 PM 11.5 °F -4.7 °F 3.0 °F 69% 30.34 in 7.0 mi West 15.0 mph - N/A   Overcast
2:35 PM 12.0 °F -3.4 °F 2.8 °F 67% 30.33 in 7.0 mi WSW 13.8 mph - N/A   Overcast
2:55 PM 12.6 °F -3.8 °F 3.0 °F 66% 30.34 in 4.0 mi WSW 16.1 mph - N/A   Haze
3:15 PM 12.9 °F -2.8 °F 3.0 °F 65% 30.33 in 2.0 mi West 15.0 mph - N/A Snow Light Snow
3:35 PM 12.9 °F -2.2 °F 3.2 °F 65% 30.34 in 2.0 mi WSW 13.8 mph 20.7 mph N/A   Haze
3:55 PM 12.9 °F -4.4 °F 3.6 °F 66% 30.33 in 4.0 mi West 18.4 mph - N/A Snow Light Snow
4:15 PM 13.1 °F -2.6 °F 4.1 °F 67% 30.32 in 7.0 mi West 15.0 mph - N/A Snow Light Snow
4:35 PM 13.3 °F -1.8 °F 3.9 °F 66% 30.32 in 2.0 mi West 13.8 mph - N/A Snow Light Snow
4:55 PM 13.8 °F -1.7 °F 3.7 °F 64% 30.32 in 2.0 mi WSW 15.0 mph 23.0 mph N/A Snow Light Snow
5:15 PM 14.0 °F 0.5 °F 3.7 °F 64% 30.31 in 10.0 mi WSW 11.5 mph - N/A   Overcast
5:35 PM 14.0 °F 0.5 °F 4.1 °F 65% 30.31 in 10.0 mi WSW 11.5 mph - N/A   Overcast
5:55 PM 14.0 °F -0.2 °F 4.3 °F 65% 30.31 in 7.0 mi WSW 12.7 mph - N/A   Overcast
6:15 PM 13.8 °F -0.5 °F 4.1 °F 65% 30.32 in 10.0 mi WSW 12.7 mph - N/A   Mostly Cloudy
6:35 PM 13.6 °F -0.7 °F 3.9 °F 65% 30.32 in 10.0 mi WSW 12.7 mph - N/A   Mostly Cloudy
6:55 PM 14.0 °F -0.8 °F 4.6 °F 66% 30.31 in 10.0 mi SW 13.8 mph - N/A   Overcast
7:15 PM 13.8 °F 1.8 °F 5.0 °F 68% 30.31 in 10.0 mi SW 9.2 mph - N/A   Scattered Clouds
7:35 PM 13.6 °F 3.5 °F 5.0 °F 68% 30.31 in 10.0 mi SW 6.9 mph - N/A   Scattered Clouds
7:55 PM 13.1 °F 1.8 °F 5.0 °F 70% 30.30 in 7.0 mi SW 8.1 mph - N/A   Scattered Clouds
8:15 PM 12.7 °F 2.4 °F 4.8 °F 71% 30.30 in 10.0 mi SSW 6.9 mph - N/A   Clear
8:35 PM 12.6 °F 1.1 °F 4.8 °F 71% 30.31 in 10.0 mi SW 8.1 mph - N/A   Clear
8:55 PM 12.7 °F -1.1 °F 5.0 °F 71% 30.31 in 10.0 mi SW 11.5 mph - N/A   Clear
9:15 PM 13.1 °F 0.1 °F 5.0 °F 70% 30.30 in 10.0 mi SW 10.4 mph - N/A   Clear
9:35 PM 13.3 °F 0.3 °F 5.5 °F 71% 30.30 in 10.0 mi SW 10.4 mph - N/A   Clear
9:55 PM 13.6 °F -1.3 °F 5.7 °F 71% 30.29 in 10.0 mi SW 13.8 mph - N/A   Clear
10:15 PM 13.5 °F -0.2 °F 5.9 °F 72% 30.29 in 7.0 mi SSW 11.5 mph - N/A Snow Light Snow
10:35 PM 13.6 °F -0.7 °F 5.9 °F 71% 30.28 in 10.0 mi SSW 12.7 mph - N/A   Clear
10:55 PM 13.8 °F -1.7 °F 5.9 °F 71% 30.27 in 7.0 mi SSW 15.0 mph - N/A Snow Light Snow
11:15 PM 14.2 °F 1.4 °F 6.1 °F 70% 30.26 in 7.0 mi SSW 10.4 mph - N/A   Clear
11:35 PM 14.5 °F -0.7 °F 6.6 °F 71% 30.26 in 7.0 mi SSW 15.0 mph 18.4 mph N/A   Clear
11:55 PM 14.7 °F 0.7 °F 7.0 °F 71% 30.25 in 7.0 mi SW 12.7 mph 18.4 mph N/A Snow Light Snow